Location: Saratoga Springs
(43.0831°N, 73.7850°W)
Time: 16:30:36
(UTC-04:00)

Tiros 1 despin weight - Pass Details

Date: 18 April 2024
Orbit: 578 x 620 km, 48.2° (Epoch: 29 May)

Event Time Altitude Azimuth Distance (km) Brightness Sun altitude
Rises 13:38:00 0° 216° (SW) 2,812 ? 56.7°
Reaches altitude 10° 13:40:23 10° 208° (SSW) 1,922 ? 56.6°
Maximum altitude 13:44:24 35° 142° (SE) 975 ? 56.3°
Drops below altitude 10° 13:48:30 10° 77° (ENE) 1,957 ? 56.0°
Sets 13:50:57 0° 68° (ENE) 2,871 ? 55.8°
